Location: Ferma
(41.9500°N, 44.5167°E)
Time: 20:48:24
(UTC+00:00)

FENGYUN 1C DEB - Pass Details

Date: 11 August 2022
Orbit: 606 x 930 km, 99.7° (Epoch: 01 October)

Event Time Altitude Azimuth Distance (km) Brightness Sun altitude
Exits shadow 16:35:10 - 110° (ESE) 2,551 ? -5.4°
Reaches altitude 10° 16:36:12 10° 102° (ESE) 2,261 ? -5.6°
Maximum altitude 16:39:36 19° 58° (ENE) 1,806 ? -6.2°
Drops below altitude 10° 16:43:11 10° 16° (NNE) 2,417 ? -6.8°
Sets 16:46:17 0° 359° (N) 3,414 ? -7.3°
